Weather History for KBDH - October, 2012

Change the Weather History Date:

Tuesday, October 2, 2012

  Actual Average (KLJF) Record (KLJF)
Temperature  
Mean Temperature 55 °F -  
Max Temperature 75 °F 68 °F 90 °F (1953)
Min Temperature 35 °F 41 °F 3 °F (1999)
Degree Days  
Heating Degree Days 10    
Growing Degree Days 5 (Base 50)    
Moisture  
Dew Point 26 °F    
Average Humidity 40    
Maximum Humidity 75    
Minimum Humidity 12    
Precipitation  
Precipitation 0.00 in - - ()
Sea Level Pressure  
Sea Level Pressure 29.91 in    
Wind  
Wind Speed 3 mph (South)    
Max Wind Speed 10 mph    
Max Gust Speed 17 mph    
Visibility 10 miles    
Events      
Averages and records for this station are not official NWS values.
T = Trace of Precipitation, MM = Missing Value Source: NWS Daily Summary

Daily Weather History Graph

Daily Weather History Graph

Search for Another Location

Airport or City:

Trip Planner

Search our weather history database for the weather conditions in past years. The results will help you decide how hot, cold, wet, or windy it might be!

Date:

Astronomy

Oct. 02, 2012 Rise Set
Actual Time 7:20 AM CDT 6:58 PM CDT
Civil Twilight 6:51 AM CDT 7:27 PM CDT
Nautical Twilight 6:17 AM CDT 8:01 PM CDT
Astronomical Twilight 5:42 AM CDT 8:35 PM CDT
Moon 8:01 PM CDT (10/2) 9:57 AM CDT (10/2)
Length of Visible Light 12h 36m
Length of Day
11h 37m
Waning Gibbous, 94% of the Moon is Illuminated
Oct 2
Waning Gibbous
Oct 8
Last Quarter
Oct 15
New
Oct 21
First Quarter
Oct 29
Full

Hourly Weather History & Observations

Time (CDT) Temp. Windchill Dew Point Humidity Pressure Visibility Wind Dir Wind Speed Gust Speed Precip Events Conditions
12:15 AM 42.8 °F 41.1 °F 28.4 °F 57% 30.01 in 10.0 mi North 3.5 mph - N/A   Clear
12:35 AM 42.8 °F - 28.4 °F 57% 30.00 in 10.0 mi Calm Calm - N/A   Clear
12:56 AM 44.6 °F - 30.2 °F 57% 30.00 in 10.0 mi Calm Calm - N/A   Clear
1:35 AM 42.8 °F - 28.4 °F 57% 30.00 in 10.0 mi Calm Calm - N/A   Clear
1:55 AM 42.8 °F - 30.2 °F 61% 30.00 in 10.0 mi Calm Calm - N/A   Clear
2:15 AM 39.2 °F - 28.4 °F 65% 29.99 in 10.0 mi Calm Calm - N/A   Clear
2:35 AM 42.8 °F - 30.2 °F 61% 29.99 in 10.0 mi Calm Calm - N/A   Clear
2:55 AM 41.0 °F - 28.4 °F 61% 29.99 in 10.0 mi Calm Calm - N/A   Clear
3:15 AM 39.2 °F - 28.4 °F 65% 29.98 in 10.0 mi Calm Calm - N/A   Clear
3:35 AM 39.2 °F - 28.4 °F 65% 29.98 in 10.0 mi Calm Calm - N/A   Clear
3:56 AM 39.2 °F - 30.2 °F 70% 29.98 in 10.0 mi Calm Calm - N/A   Clear
4:15 AM 39.2 °F - 30.2 °F 70% 29.98 in 10.0 mi Calm Calm - N/A   Clear
4:35 AM 37.4 °F - 30.2 °F 75% 29.98 in 10.0 mi Calm Calm - N/A   Clear
4:56 AM 37.4 °F - 28.4 °F 70% 29.98 in 10.0 mi Calm Calm - N/A   Clear
5:35 AM 35.6 °F - 26.6 °F 70% 29.98 in 10.0 mi Calm Calm - N/A   Clear
5:56 AM 35.6 °F - 28.4 °F 75% 29.98 in 10.0 mi Calm Calm - N/A   Clear
6:15 AM 35.6 °F - 28.4 °F 75% 29.98 in 10.0 mi Calm Calm - N/A   Clear
6:35 AM 35.6 °F - 28.4 °F 75% 29.98 in 10.0 mi Calm Calm - N/A   Clear
7:15 AM 35.6 °F - 28.4 °F 75% 29.98 in 10.0 mi Calm Calm - N/A   Clear
7:35 AM 35.6 °F - 28.4 °F 75% 29.98 in 10.0 mi Calm Calm - N/A   Clear
7:56 AM 37.4 °F - 30.2 °F 75% 29.98 in 7.0 mi Calm Calm - N/A   Clear
8:15 AM 39.2 °F - 30.2 °F 70% 29.98 in 10.0 mi Calm Calm - N/A   Clear
8:35 AM 42.8 °F - 33.8 °F 70% 29.98 in 7.0 mi Calm Calm - N/A   Clear
8:55 AM 46.4 °F - 35.6 °F 66% 29.97 in 10.0 mi Calm Calm - N/A   Clear
9:15 AM 48.2 °F - 37.4 °F 66% 29.97 in 7.0 mi SSE 3.5 mph - N/A   Clear
9:33 AM 53.6 °F - 35.6 °F 51% 29.96 in 7.0 mi SSE 5.8 mph - N/A   Clear
9:55 AM 57.2 °F - 35.6 °F 44% 29.96 in 10.0 mi SSE 9.2 mph - N/A   Clear
10:15 AM 60.8 °F - 35.6 °F 39% 29.96 in 10.0 mi South 4.6 mph - N/A   Clear
10:36 AM 62.6 °F - 35.6 °F 37% - 10.0 mi South 4.6 mph - N/A   Clear
10:55 AM 62.6 °F - 35.6 °F 37% 29.95 in 10.0 mi SSE 9.2 mph - N/A   Clear
11:15 AM 64.4 °F - 35.6 °F 34% 29.94 in 10.0 mi SSW 5.8 mph - N/A   Clear
11:36 AM 66.2 °F - 32.0 °F 28% 29.94 in 10.0 mi South 5.8 mph - N/A   Clear
11:55 AM 66.2 °F - 30.2 °F 26% 29.93 in 10.0 mi SSW 8.1 mph - N/A   Clear
12:15 PM 68.0 °F - 28.4 °F 23% 29.93 in 10.0 mi SSW 8.1 mph - N/A   Clear
12:36 PM 69.8 °F - 26.6 °F 20% 29.92 in 10.0 mi SSW 9.2 mph 16.1 mph N/A   Clear
12:55 PM 69.8 °F - 26.6 °F 20% 29.91 in 10.0 mi South 5.8 mph - N/A   Clear
1:15 PM 69.8 °F - 24.8 °F 18% 29.90 in 10.0 mi SSW 6.9 mph - N/A   Clear
1:35 PM 71.6 °F - 24.8 °F 17% 29.89 in 10.0 mi South 6.9 mph - N/A   Clear
1:55 PM 71.6 °F - 23.0 °F 16% 29.88 in 10.0 mi South 8.1 mph - N/A   Clear
2:15 PM 71.6 °F - 21.2 °F 15% 29.87 in 10.0 mi SSW 9.2 mph - N/A   Clear
2:35 PM 73.4 °F - 23.0 °F 15% 29.86 in 10.0 mi South 9.2 mph 17.3 mph N/A   Clear
2:55 PM 73.4 °F - 23.0 °F 15% 29.85 in 10.0 mi SSW 10.4 mph - N/A   Clear
3:15 PM 73.4 °F - 19.4 °F 13% 29.85 in 10.0 mi SSW 5.8 mph - N/A   Clear
3:35 PM 73.4 °F - 19.4 °F 13% 29.84 in 10.0 mi SSW 6.9 mph 16.1 mph N/A   Clear
3:55 PM 73.4 °F - 19.4 °F 13% 29.83 in 10.0 mi South 6.9 mph - N/A   Clear
4:15 PM 75.2 °F - 19.4 °F 12% 29.82 in 10.0 mi SSW 4.6 mph - N/A   Clear
4:35 PM 75.2 °F - 19.4 °F 12% 29.81 in 10.0 mi SSW 4.6 mph 16.1 mph N/A   Clear
4:55 PM 73.4 °F - 19.4 °F 13% 29.81 in 10.0 mi South 6.9 mph - N/A   Clear
5:15 PM 73.4 °F - 17.6 °F 12% 29.82 in 10.0 mi South 6.9 mph - N/A   Clear
5:35 PM 73.4 °F - 17.6 °F 12% 29.82 in 10.0 mi SSW 5.8 mph - N/A   Clear
6:15 PM 71.6 °F - 17.6 °F 13% 29.83 in 10.0 mi SSW 3.5 mph - N/A   Clear
6:36 PM 69.8 °F - 19.4 °F 15% 29.83 in 7.0 mi Calm Calm - N/A   Clear
6:55 PM 68.0 °F - 19.4 °F 16% 29.83 in 10.0 mi Calm Calm - N/A   Clear
7:15 PM 64.4 °F - 19.4 °F 18% 29.83 in 10.0 mi Calm Calm - N/A   Clear
7:35 PM 60.8 °F - 19.4 °F 20% 29.83 in 10.0 mi Calm Calm - N/A   Clear
7:55 PM 57.2 °F - 19.4 °F 23% 29.83 in 10.0 mi SE 3.5 mph - N/A   Clear
8:15 PM 57.2 °F - 21.2 °F 25% 29.83 in 10.0 mi SSE 3.5 mph - N/A   Clear
8:36 PM 55.4 °F - 19.4 °F 25% 29.84 in 10.0 mi Calm Calm - N/A   Clear
8:55 PM 57.2 °F - 19.4 °F 23% 29.85 in 10.0 mi Calm Calm - N/A   Clear
9:15 PM 55.4 °F - 21.2 °F 26% 29.85 in 10.0 mi SSE 3.5 mph - N/A   Clear
9:36 PM 53.6 °F - 21.2 °F 28% 29.85 in 10.0 mi SSE 3.5 mph - N/A   Clear
9:55 PM 53.6 °F - 21.2 °F 28% 29.85 in 10.0 mi Calm Calm - N/A   Clear
10:15 PM 51.8 °F - 23.0 °F 33% 29.85 in 10.0 mi SE 5.8 mph - N/A   Clear
10:36 PM 51.8 °F - 23.0 °F 33% 29.85 in 10.0 mi SSE 4.6 mph - N/A   Clear
10:55 PM 51.8 °F - 23.0 °F 33% 29.85 in 10.0 mi SSE 4.6 mph - N/A   Clear
11:15 PM 51.8 °F - 24.8 °F 35% 29.86 in 10.0 mi SSE 3.5 mph - N/A   Clear
11:36 PM 50.0 °F - 24.8 °F 37% 29.86 in 10.0 mi SSE 3.5 mph - N/A   Clear
11:55 PM 50.0 °F - 24.8 °F 37% 29.86 in 10.0 mi SE 3.5 mph - N/A   Clear